Location: Kuffner-Sternwarte
(48.2130°N, 16.2960°E)
Time: 08:01:48
(UTC+02:00)

COROT - Pass Details

Date: 20 August 2018
Orbit: 599 x 890 km, 90.0° (Epoch: 14 August)

Event Time Altitude Azimuth Distance (km) Brightness Sun altitude
Exits shadow 02:32:15 - 120° (ESE) 2,808 8.9 -25.8°
Reaches altitude 10° 02:34:58 10° 98° (E) 2,097 8.5 -25.6°
Maximum altitude 02:36:58 13° 71° (ENE) 1,884 8.6 -25.4°
Drops below altitude 10° 02:38:55 10° 45° (NE) 2,041 9.1 -25.3°
Sets 02:42:15 0° 17° (NNE) 2,912 10.3 -25.0°
